Location: Newark
(43.0658°N, 122.2322°W)
Time: 18:19:01
(UTC+00:00)

STARLINK-1745 - Pass Details

Date: 21 September 2020
Orbit: 378 x 381 km, 53.0° (Epoch: 28 October)

Event Time Altitude Azimuth Distance (km) Brightness Sun altitude
Exits shadow 12:06:30 15° 340° (NNW) 1,201 5.3 -20.3°
Maximum altitude 12:07:02 16° 352° (N) 1,180 5.4 -20.2°
Drops below altitude 10° 12:09:10 10° 32° (NNE) 1,483 6.5 -19.9°
Sets 12:11:52 0° 56° (NE) 2,344 8.3 -19.4°
